Regional Weather Roundup
Issued by NWS

Home | Current Version | Previous Version | Text Only | Print | Product List | Glossary On
Versions: 1 2 3 4 5 6 7 8 9 10 11 12 13 14 15 16 17 18 19 20 21 22 23 24 25 26 27 28 29 30 31 32 33 34 35 36 37 38 39 40 41 42 43 44 45 46 47 48 49 50
000
ASUS44 KFWD 290501
RWRTX
NORTH TEXAS HOURLY WEATHER ROUNDUP
NATIONAL WEATHER SERVICE FORT WORTH TX
1200 AM CDT FRI JUL 29 2016

NOTE: "FAIR" INDICATES FEW OR NO CLOUDS BELOW 12,000 FEET WITH NO
SIGNIFICANT WEATHER AND/OR OBSTRUCTIONS TO VISIBILITY.

TXZ118-119-290600-
DALLAS/FORT WORTH METROPLEX

CITY           SKY/WX    TMP DP  RH WIND       PRES   REMARKS
DFW AIRPORT    MOCLDY    80  72  76 S8        29.94S
DALLAS LOVE    CLOUDY    82  72  71 SE9       29.95R
FTW MEACHAM    CLOUDY    81  73  76 SE7       29.94S
DAL-EXECUTIVE  PTCLDY    77  72  84 S5        29.95S
FTW-ALLIANCE   MOCLDY    78  72  81 S3        29.94R
FTW-NAS-JRB    CLOUDY    83  70  64 S10       29.94S
FTW-SPINKS     MOCLDY    78  73  84 S5        29.96S
ARLINGTON      MOCLDY    78  73  84 S7        29.94F
GRAND PRAIRIE  CLOUDY    78  72  81 SE5       29.96F
ADDISON        PTCLDY    82  73  73 S9        29.97R
MESQUITE       CLOUDY    75  73  91 SE3       29.97R
LANCASTER      CLOUDY    77  73  89 CALM      29.96S
$$

TXZ091>094-102>105-117-120-121-131>134-290600-
NORTH CENTRAL TEXAS

CITY           SKY/WX    TMP DP  RH WIND       PRES   REMARKS
SHRMAN/DENISON NOT AVBL
BOWIE          CLEAR     79  70  74 CALM      29.97S
BRIDGEPORT     CLEAR     76  71  84 CALM      29.97R
DECATUR        CLEAR     79  69  72 S5        29.97R
DENTON         CLEAR     78  72  81 SE6       29.95R
MCKINNEY       PTCLDY    78  72  81 S5        29.95S
GREENVILLE     MOCLDY    77  70  78 MISG      29.97S
ROCKWALL       CLOUDY    77  72  83 SE5       29.95S
TERRELL        CLOUDY    76  71  85 SE7       29.96S
WAXAHACHIE     MOCLDY    76  75  98 S7        29.97S
CLEBURNE       PTCLDY    79  75  89 SE8       29.98R
GRANBURY       PTCLDY    80  73  81 CALM      29.96R
$$

TXZ083>090-098>101-113>116-127>130-139>142-154-155-290600-
WESTERN NORTH TEXAS

CITY           SKY/WX    TMP DP  RH WIND       PRES   REMARKS
WICHITA FALLS  CLEAR     81  70  69 S8        29.94R
WF-KICKAPOO    CLEAR     82  70  65 S3        29.95F
VERNON         PTCLDY    84  63  49 S6        29.96S
ABILENE        CLEAR     79  65  62 SE9       29.99F
ABILENE-DYESS  CLEAR     76  67  74 S5        29.98F
CISCO          CLOUDY    81  68  65 S9        30.00F HAZE
MINERAL WELLS  CLOUDY    76  72  87 SE5       29.93F
STEPHENVILLE   CLOUDY    79  69  70 S3        30.00S
COMANCHE       CLEAR     80  70  72 S8        29.98F
BROWNWOOD      MOCLDY    82  66  57 S9        30.00S
COLEMAN        CLEAR     82  67  60 S9        30.01S
$$

TXZ143>147-156>162-174-175-290600-
CENTRAL TEXAS

CITY           SKY/WX    TMP DP  RH WIND       PRES   REMARKS
WACO           CLEAR     80  69  69 S15       29.95F
WACO-MCGREGOR  CLEAR     79  72  79 S14G20    29.96F
HILLSBORO      PTCLDY    79  69  70 S7        29.97R
CORSICANA      PTCLDY    78  72  81 S7        29.99R
MEXIA          CLEAR     76  68  77 S9        29.97R
HEARNE         PTCLDY    75  72  91 CALM      29.98F
CAMERON        CLEAR     77  72  83 S6        29.97F
TEMPLE         CLEAR     78  72  81 S10       29.98F
KILLEEN        NOT AVBL
KILLEEN-SKYLRK PTCLDY    79  73  82 S8        29.98F
HAMILTON       CLEAR     79  68  69 S10       30.00S
$$

TXZ095>097-106>112-122>126-135>138-148>153-164>167-290600-
EAST TEXAS

CITY           SKY/WX    TMP DP  RH WIND       PRES   REMARKS
PARIS          PTCLDY    75  64  69 S6        29.96S
SULPHUR SPRNGS CLOUDY    79  73  81 SW7       29.97F
MOUNT PLEASANT CLOUDY    74  74 100 S5        29.97F
GILMER         MOCLDY    74  72  94 SE3       29.98S
MINEOLA        MOCLDY    79  73  83 CALM      29.98R
TYLER          CLEAR     75  71  87 S8        29.98R
LONGVIEW       CLOUDY    73  72  96 S6        29.97S
MARSHALL       CLOUDY    70  68  93 CALM      30.01R
ATHENS         PTCLDY    73  73 100 S5        29.97R
PALESTINE      CLEAR     76  73  89 S5        29.99F
JACKSONVILLE     N/A     74  73  96 S6        30.01S
HENDERSON      PTCLDY    73  72  96 CALM      30.00R
CENTER         CLOUDY    74  73  95 CALM      30.01S
NACOGDOCHES    PTCLDY   N/A N/A N/A SE3       29.98S
LUFKIN         PTCLDY    73  72  96 S5        30.00S
$$

SUPPLEMENTAL OBSERVATIONS (CENTRAL)

CITY           SKY/WX    TMP DP  RH WIND       PRES   REMARKS
$$

SUPPLEMENTAL OBSERVATIONS (WEST)

CITY           SKY/WX    TMP DP  RH WIND       PRES   REMARKS
$$

SUPPLEMENTAL OBSERVATIONS (EAST)

CITY           SKY/WX    TMP DP  RH WIND       PRES   REMARKS
$$

SUPPLEMENTAL OBSERVATIONS ARE A COLLECTION OF AUTOMATED INSTRUMENTS
THAT ARE MAINTAINED BY A VARIETY OF FEDERAL AND STATE AGENCIES.
CERTAIN ELEMENTS...SUCH AS HUMIDITY VALUES AND SUSTAINED WIND
SPEEDS...MAY BE APPROXIMATED.




USA.gov is the U.S. government's official web portal to all federal, state and local government web resources and services.